Regional Weather Roundup
Issued by NWS Cleveland, OH

Home | Current Version | Previous Version | Graphics & Text | Print | Product List | Glossary On
Versions: 1 2 3 4 5 6 7 8 9 10 11 12 13 14 15 16 17 18 19 20 21 22 23 24 25 26 27 28 29 30 31 32 33 34 35 36 37 38 39 40 41 42 43 44 45 46 47 48 49 50
000
ASUS41 KCLE 222010
RWRCLE
OHIO REGIONAL WEATHER ROUNDUP
NATIONAL WEATHER SERVICE WILMINGTON, OH
400 PM EDT TUE AUG 22 2017

NOTE: "FAIR" INDICATES FEW OR NO CLOUDS BELOW 12,000 FEET WITH NO
SIGNIFICANT WEATHER AND/OR OBSTRUCTIONS TO VISIBILITY.

OHZ001>008-015>018-024>027-034-035-043-044-222100-
   NORTHWEST OHIO

CITY           SKY/WX    TMP DP  RH WIND       PRES   REMARKS
DEFIANCE       PTSUNNY   77  65  66 VRB7G20   29.83F
FINDLAY        FAIR      79  66  64 W16G23    29.83F
TOLEDO EXPRESS PTSUNNY   78  67  68 W23       29.81F
TOLEDO EXEC    PTSUNNY   78  67  68 W18G26    29.81F
LIMA           PTSUNNY   77  68  73 W16G23    29.87F
$$

OHZ009>014-019>023-028>033-038-089-222100-
   NORTHEAST OHIO

CITY           SKY/WX    TMP DP  RH WIND       PRES   REMARKS
CLE-HOPKINS    PTSUNNY   76  70  82 W16       29.82F
CLE-LAKEFRONT  FAIR      77  67  71 SW17G24   29.78F
CUY CO. ARPT   CLOUDY    77  70  78 W14       29.81F
LORAIN-ELYRIA  FAIR      77  65  66 W10G28    29.82F
ASHTABULA      FAIR      74  71  91 W15G25    29.79F
AKRON-CANTON   LGT RAIN  78  62  57 W13G25    29.84F
WOOSTER        PTSUNNY   77  67  71 SW13G20   29.84F
MANSFIELD      FAIR      76  65  68 SW14G24   29.86F
YOUNGSTOWN     TSTM      73  69  87 W13G28    29.80S
$$

OHZ042-051>053-060>062-070>072-077>081-222100-
  SOUTHWEST OHIO

CITY           SKY/WX    TMP DP  RH WIND       PRES   REMARKS
CINC-COVINGTON PTSUNNY   80  72  76 W9G18     29.92F
CINC-LUNKEN    PTSUNNY   82  73  74 NW5       29.91F
HAMILTON       FAIR      80  70  71 W12G17    29.91F
DAYTON         PTSUNNY   77  70  79 SW13      29.90F
WRIGHT-PAT AFB PTSUNNY   77  71  82 SW14      29.89F
DAYTON GENERAL FAIR      78  67  68 W10       29.91F
WILMINGTON     PTSUNNY   79  71  76 W7        29.91F
$$

OHZ036-037-039>041-045>050-054>059-063>069-073>076-082>088-222100-
  CENTRAL AND SOUTHEAST OHIO

CITY           SKY/WX    TMP DP  RH WIND       PRES   REMARKS
COLUMBUS       CLOUDY    76  69  79 W10       29.87F
OSU AIRPORT    PTSUNNY   76  71  85 SW12      29.87F
BOLTON FIELD   CLOUDY    75  68  78 W8G17     29.89F
RICKENBACK AFB CLOUDY    76  69  80 W8        29.88F
NEWARK         PTSUNNY   76  67  73 W8        29.88F
MARION         PTSUNNY   76  66  71 W13       29.86F
LANCASTER      FAIR      79  71  76 W8        29.90F
ZANESVILLE     FAIR      74  71  91 SW7       29.89F
NEW PHILLY     PTSUNNY   74  67  78 W15G35    29.88R
$$




USA.gov is the U.S. government's official web portal to all federal, state and local government web resources and services.